STARLINK-2119 (47397 NORAD) Tracking and Keplerian Element Data

This shows tracking and keplerian element data for the satellite.

Feedback or suggestion? Click here.




ElementValue
Catalog47397
NameSTARLINK-2119
Epoch Orbit1348
Epoch Day106.25002315
Epoch Year2021
RAAN170.2143
Inclination53.0549
Eccentricity0.0001252
Argument of Perigee93.3942
Mean Anonmoly12.4891
Mean Motion15.06393619
Decay Rate-0.00015337
L11 47397U 21005BA 21106.25002315 -.00015337 00000-0 -10131-2 0 9995
L22 47397 53.0549 170.2143 0001252 93.3942 12.4891 15.06393619 13480

Live tracking and technical data element details for STARLINK-2119 (NORAD 47397). STARLINK-2119 can be tracked NOW for your location showing map with azimuth and elevation plus other details from your city location.

Track the satellite on the map from your city or location and see movement details for azimuth, elevation, latitude, longitude, range, height, and movement on the map or in text.







IsCatalogInMostPopularTable: catalog: 47397, numindb: 15
Update: records affected: 1



GetName: 47397 STARLINK-2119

Hit Count: updated at: Fri, 16 Apr 2021 10:45:16 GMT